Find Starlink 33919

NORAD ID: 63699 Int'l Des: 2025-087 Owner: SPXS Country: US Constellation: starlink operational
LEOCIRCULAR

Live Position

Loading 3D Globe...

About Starlink 33919

Description loading...

Upcoming Passes

Passes for default location (London). Set your location on the main map for personalized predictions.

Altitude History

Loading altitude history...

Two-Line Element Set

1 63699U 25087C 26126.87934064 .00014531 00000-0 50178-3 0 9991
2 63699 53.1593 309.6319 0000875 105.7686 254.3411 15.30199711 58106
Epoch: May 6, 2026 • Age: 18 hours

Current Status

Altitude 475.0 km
Velocity 7.63 km/s
Sub-Earth Point 10.85°N, 26.41°E
Launch Date Apr 28, 2025
Age 1 years
Type internet

Technical Details

Classification Payload
Mass 575.00 kg
Dry Mass 530.00 kg
Total Mass 575.00 kg
Length 0.30 m
Diameter 4.10 m
Span 29.00 m
Shape Box + pan
Manufacturer SPXS
Bus Type Starlink V2MO
Phase Status In Orbit
Owner/State SPXS/US

Most Searched